Time,TemperatureF,DewpointF,PressureIn,WindDirection,WindDirectionDegrees,WindSpeedMPH,WindSpeedGustMPH,Humidity,HourlyPrecipIn,Conditions,Clouds,dailyrainin,SoftwareType,DateUTC
2013-10-19 00:13:00,43.0,39.0,30.03,West,260,7.0,-999.0,86,-99.99,,,-99.99,,2013-10-19 05:13:00,
2013-10-19 00:22:00,43.0,39.0,30.02,West,270,6.0,-999.0,86,-99.99,,,-99.99,,2013-10-19 05:22:00,
2013-10-19 00:52:00,41.0,39.0,30.02,West,260,8.0,-999.0,93,-99.99,,,-99.99,,2013-10-19 05:52:00,
2013-10-19 01:12:00,41.0,39.0,30.01,West,280,9.0,-999.0,93,-99.99,,,-99.99,,2013-10-19 06:12:00,
2013-10-19 01:22:00,41.0,39.0,30.01,West,260,7.0,-999.0,93,-99.99,,,-99.99,,2013-10-19 06:22:00,
2013-10-19 01:52:00,41.0,39.0,30.01,West,270,9.0,-999.0,93,-99.99,,,-99.99,,2013-10-19 06:52:00,
2013-10-19 02:11:00,41.0,39.0,30.01,West,260,7.0,-999.0,93,-99.99,,,-99.99,,2013-10-19 07:11:00,
2013-10-19 02:21:00,41.0,39.0,30.00,North,0,0.0,-999.0,93,-99.99,,,-99.99,,2013-10-19 07:21:00,
2013-10-19 02:53:00,41.0,37.0,30.00,WSW,250,7.0,-999.0,86,-99.99,,,-99.99,,2013-10-19 07:53:00,
2013-10-19 03:11:00,41.0,37.0,30.00,WSW,250,7.0,-999.0,86,-99.99,,,-99.99,,2013-10-19 08:11:00,
2013-10-19 03:22:00,41.0,37.0,30.00,WSW,250,9.0,-999.0,86,-99.99,,,-99.99,,2013-10-19 08:22:00,
2013-10-19 03:52:00,41.0,37.0,29.99,WSW,250,9.0,-999.0,86,-99.99,,,-99.99,,2013-10-19 08:52:00,
2013-10-19 04:11:00,39.0,37.0,29.99,WSW,250,10.0,-999.0,93,-99.99,,,-99.99,,2013-10-19 09:11:00,
2013-10-19 04:21:00,39.0,36.0,29.98,WSW,240,7.0,-999.0,86,-99.99,,,-99.99,,2013-10-19 09:21:00,
2013-10-19 04:54:00,39.0,36.0,29.98,WSW,250,7.0,-999.0,86,-99.99,,,-99.99,,2013-10-19 09:54:00,
2013-10-19 05:13:00,39.0,36.0,29.98,WSW,240,6.0,-999.0,86,-99.99,,,-99.99,,2013-10-19 10:13:00,
2013-10-19 05:23:00,37.0,36.0,29.98,SW,230,6.0,-999.0,93,-99.99,,,-99.99,,2013-10-19 10:23:00,
2013-10-19 05:53:00,37.0,36.0,29.98,WSW,240,6.0,-999.0,93,-99.99,,,-99.99,,2013-10-19 10:53:00,
2013-10-19 06:12:00,37.0,36.0,29.98,SW,230,6.0,-999.0,93,-99.99,,,-99.99,,2013-10-19 11:12:00,
2013-10-19 06:22:00,37.0,36.0,29.98,SW,230,9.0,-999.0,93,-99.99,,,-99.99,,2013-10-19 11:22:00,
2013-10-19 06:52:00,37.0,36.0,29.98,WSW,240,12.0,-999.0,93,-99.99,,,-99.99,,2013-10-19 11:52:00,
2013-10-19 07:11:00,37.0,36.0,29.98,WSW,240,9.0,-999.0,93,-99.99,,,-99.99,,2013-10-19 12:11:00,
2013-10-19 07:21:00,37.0,36.0,29.99,SW,230,8.0,-999.0,93,-99.99,,,-99.99,,2013-10-19 12:21:00,
2013-10-19 07:52:00,37.0,34.0,29.99,SW,230,8.0,-999.0,86,-99.99,,,-99.99,,2013-10-19 12:52:00,
2013-10-19 08:12:00,37.0,34.0,29.99,SW,230,7.0,-999.0,86,-99.99,,,-99.99,,2013-10-19 13:12:00,
2013-10-19 08:22:00,37.0,36.0,29.98,SW,220,8.0,-999.0,93,-99.99,,,-99.99,,2013-10-19 13:22:00,
2013-10-19 08:52:00,39.0,36.0,29.99,SW,230,10.0,-999.0,86,-99.99,,,-99.99,,2013-10-19 13:52:00,
2013-10-19 09:11:00,39.0,36.0,29.99,SW,230,8.0,-999.0,86,-99.99,,,-99.99,,2013-10-19 14:11:00,
2013-10-19 09:21:00,41.0,36.0,29.99,SW,230,14.0,-999.0,80,-99.99,,,-99.99,,2013-10-19 14:21:00,
2013-10-19 09:52:00,43.0,37.0,29.99,SW,230,10.0,16.0,81,-99.99,,,-99.99,,2013-10-19 14:52:00,
2013-10-19 10:11:00,43.0,37.0,30.00,SW,230,9.0,-999.0,81,-99.99,,,-99.99,,2013-10-19 15:11:00,
2013-10-19 10:22:00,45.0,37.0,30.00,WSW,250,14.0,21.0,75,-99.99,,,-99.99,,2013-10-19 15:22:00,
2013-10-19 10:55:00,46.0,37.0,29.99,WSW,250,15.0,-999.0,70,-99.99,,,-99.99,,2013-10-19 15:55:00,
2013-10-19 11:14:00,45.0,37.0,29.99,WSW,240,13.0,-999.0,75,-99.99,,,-99.99,,2013-10-19 16:14:00,
2013-10-19 11:24:00,46.0,36.0,29.98,WSW,240,10.0,-999.0,65,-99.99,,,-99.99,,2013-10-19 16:24:00,
2013-10-19 12:13:00,50.0,37.0,29.98,WSW,250,13.0,20.0,61,-99.99,,,-99.99,,2013-10-19 17:13:00,
2013-10-19 13:12:00,54.0,36.0,29.96,SW,220,10.0,17.0,50,-99.99,,,-99.99,,2013-10-19 18:12:00,
2013-10-19 14:22:00,57.0,30.0,29.93,West,260,15.0,22.0,35,-99.99,,,-99.99,,2013-10-19 19:22:00,
2013-10-19 15:11:00,59.0,28.0,29.91,West,260,15.0,27.0,30,-99.99,,,-99.99,,2013-10-19 20:11:00,
2013-10-19 15:52:00,59.0,28.0,29.90,WSW,240,15.0,22.0,30,-99.99,,,-99.99,,2013-10-19 20:52:00,
2013-10-19 16:21:00,59.0,27.0,29.90,SW,230,15.0,25.0,28,-99.99,,,-99.99,,2013-10-19 21:21:00,
2013-10-19 16:54:00,59.0,27.0,29.89,SW,230,12.0,18.0,28,-99.99,,,-99.99,,2013-10-19 21:54:00,
2013-10-19 17:14:00,59.0,27.0,29.89,SW,230,9.0,17.0,28,-99.99,,,-99.99,,2013-10-19 22:14:00,
2013-10-19 17:24:00,59.0,28.0,29.89,SW,230,15.0,20.0,30,-99.99,,,-99.99,,2013-10-19 22:24:00,
2013-10-19 17:53:00,57.0,30.0,29.89,SW,230,12.0,17.0,35,-99.99,,,-99.99,,2013-10-19 22:53:00,
2013-10-19 18:12:00,57.0,30.0,29.89,SW,230,8.0,-999.0,35,-99.99,,,-99.99,,2013-10-19 23:12:00,
2013-10-19 18:22:00,55.0,30.0,29.89,SW,230,9.0,-999.0,37,-99.99,,,-99.99,,2013-10-19 23:22:00,
2013-10-19 18:52:00,54.0,30.0,29.90,SW,220,7.0,-999.0,40,-99.99,,,-99.99,,2013-10-19 23:52:00,
2013-10-19 19:11:00,54.0,30.0,29.90,SW,230,8.0,-999.0,40,-99.99,,,-99.99,,2013-10-20 00:11:00,
2013-10-19 19:22:00,52.0,32.0,29.90,SSW,210,7.0,-999.0,46,-99.99,,,-99.99,,2013-10-20 00:22:00,
2013-10-19 19:52:00,48.0,32.0,29.91,SSW,200,6.0,-999.0,53,-99.99,,,-99.99,,2013-10-20 00:52:00,
2013-10-19 20:11:00,48.0,32.0,29.91,South,190,6.0,-999.0,53,-99.99,,,-99.99,,2013-10-20 01:11:00,
2013-10-19 20:22:00,48.0,34.0,29.91,SSW,200,6.0,-999.0,57,-99.99,,,-99.99,,2013-10-20 01:22:00,
2013-10-19 20:52:00,50.0,34.0,29.91,SSW,210,8.0,-999.0,53,-99.99,,,-99.99,,2013-10-20 01:52:00,
2013-10-19 21:11:00,50.0,34.0,29.91,SSW,210,9.0,-999.0,53,-99.99,,,-99.99,,2013-10-20 02:11:00,
2013-10-19 21:22:00,50.0,34.0,29.90,SSW,200,8.0,-999.0,53,-99.99,,,-99.99,,2013-10-20 02:22:00,
2013-10-19 21:52:00,50.0,34.0,29.90,SSW,200,8.0,-999.0,53,-99.99,,,-99.99,,2013-10-20 02:52:00,
2013-10-19 22:12:00,50.0,34.0,29.91,SSW,200,8.0,-999.0,53,-99.99,,,-99.99,,2013-10-20 03:12:00,
2013-10-19 22:21:00,50.0,34.0,29.91,SSW,210,10.0,-999.0,53,-99.99,,,-99.99,,2013-10-20 03:21:00,
2013-10-19 22:55:00,48.0,34.0,29.91,SSW,210,9.0,-999.0,57,-99.99,,,-99.99,,2013-10-20 03:55:00,
2013-10-19 23:02:00,-999.0,-99.9,29.92,SW,220,9.0,-999.0,-999,-99.99,,,-99.99,,2013-10-20 04:02:00,
2013-10-19 23:14:00,50.0,34.0,29.92,SW,220,9.0,-999.0,53,-99.99,,,-99.99,,2013-10-20 04:14:00,
2013-10-19 23:24:00,48.0,34.0,29.91,SSW,210,7.0,-999.0,57,-99.99,,,-99.99,,2013-10-20 04:24:00,
2013-10-19 23:54:00,48.0,36.0,29.92,SSW,210,7.0,-999.0,61,-99.99,,,-99.99,,2013-10-20 04:54:00,